Terminal Aerodrome Forecast
Issued by NWS Columbia, SC

Home | Current Version | Previous Version | Text Only | Print | Product List | Glossary On
Versions: 1 2 3 4 5 6 7 8 9 10 11 12 13 14 15 16 17 18 19 20 21 22 23 24 25 26 27 28 29 30 31 32 33
838
FTUS42 KCAE 271450 AAA
TAFCAE
TAF AMD
KCAE 271450Z 2715/2812 29007KT P6SM FEW060 FEW250
     FM271800 27009KT P6SM SCT060
     FM280600 VRB04KT P6SM SKC=

USA.gov is the U.S. government's official web portal to all federal, state and local government web resources and services.